Flag for U.S.A. Weather past 2 weeks in Santa Fe, New Mexico, U.S.A.

Now
67 °F

Sunny.


Feels Like: 67 °F
Forecast: 33 / 63 °F
Wind: 20 mph from West

Location: Santa Fe County Municipal Airport


UV Index: 7 (High)

Visibility: 10 mi


Pressure: 29.86 "Hg

Humidity: 5%

Dew point: -6 °F

Location of Santa FeLocation

Historic Weather in Santa Fe

°F

Santa Fe temperature yesterday

Maximum temperature yesterday: 70 °F (at 1:53 PM)
Minimum temperature yesterday: 48 °F (at 6:53 AM)
Average temperature yesterday: 58 °F

Past Weeks' High & Low Weather Summary

 TemperatureHumidityPressure
High76 °F (Apr 10, 2:53 PM)93% (Apr 19, 5:53 AM)30.26 "Hg (Apr 19, 5:53 AM)
Low20 °F (Apr 15, 5:53 AM)5% (Apr 10, 2:53 PM)29.45 "Hg (Apr 13, 2:53 PM)
Average54 °F35%29.86 "Hg
* Reported Apr 9 3:53 PM — Apr 24 3:53 PM, Santa Fe, Weather by CustomWeather, © 2014

Note: Actual official high and low records may vary slightly from our data, if they occured in-between our weather recording intervals... More about our weather records

Advertising

Historic Weather Conditions — Data for Previous 24 hours

 ConditionsComfort  
Time TempWeatherWind HumidityBarometerVisibility
3:53 PM
Apr 24
67 °FSunny.23 mph5%29.85 "Hg10 mi
2:53 PM68 °FSunny.20 mph6%29.88 "Hg10 mi
1:53 PM64 °FSunny.18 mph8%29.90 "Hg10 mi
12:53 PM60 °FSunny.10 mph10%29.93 "Hg10 mi
11:53 AM58 °FSunny.9 mph12%29.95 "Hg10 mi
10:53 AM54 °FSunny.5 mph16%29.97 "Hg10 mi
9:53 AM53 °FSunny.9 mph17%29.98 "Hg10 mi
8:53 AM49 °FSunny.12 mph20%29.97 "Hg10 mi
7:53 AM44 °FSunny.14 mph24%29.97 "Hg10 mi
6:53 AM38 °FClear.10 mph27%29.94 "Hg10 mi
5:53 AM34 °FClear.9 mph32%29.92 "Hg10 mi
4:53 AM34 °FClear.9 mph35%29.89 "Hg10 mi
3:53 AM37 °FClear.10 mph31%29.87 "Hg10 mi
2:53 AM38 °FClear.10 mph30%29.81 "Hg10 mi
1:53 AM43 °FClear.13 mph24%29.77 "Hg10 mi
12:53 AM48 °FClear.16 mph19%29.74 "Hg10 mi
11:53 PM
Apr 23
50 °FClear.16 mph19%29.70 "Hg10 mi
10:53 PM50 °FClear.10 mph19%29.69 "Hg10 mi
9:53 PM49 °FClear.8 mph21%29.69 "Hg10 mi
8:53 PM52 °FClear.10 mph22%29.67 "Hg10 mi
7:53 PM55 °FSunny.16 mph21%29.65 "Hg10 mi
6:53 PM59 °FPassing clouds.17 mph22%29.64 "Hg10 mi
5:53 PM61 °FOvercast.16 mph18%29.62 "Hg10 mi
Weather by CustomWeather, © 2014

See weather overview